TBA - TO BE ASSIGNED

基本信息
目录编号:
82250
目录名称:
TBA - TO BE ASSIGNED
国际标识:
UNKNOWN
轨道中心:
EARTH
物体状态:
在轨
发射日期:
--
国别:
--
轨道信息
数据来源: 国际轨道数据
星历时间: 2026-09-09T14:04:13+0800
半长轴: 7218.638km
偏心率: 0.0068327
轨道倾角: 98.898°
近地点辐角: 140.853°
升交点赤经: 162.102°
平近点角: 10.849°
近地点: 791.178km
远地点: 889.824km
周期: 101.728分钟
每日圈数: 14.155328
详细信息
轨道高度:
LEO
数据来源:
AOE Integration Group
参考系:
TEME
时间系统:
UTC
历元类型:
SGP4
2D轨道图
3D轨道图
轨道高度分析图
轨道倾角分析图
轨道综合分析图
查看轨道综合分析图